Location: Dobrzeń Wielki
(50.7693°N, 17.8414°E)
Time: 11:28:02
(UTC+01:00)

Envisat - Pass Details

Date: 30 October 2019
Orbit: 764 x 766 km, 98.1° (Epoch: 22 November)

Event Time Altitude Azimuth Distance (km) Brightness Sun altitude
Rises 17:19:21 0° 154° (SSE) 3,223 6.1 -8.7°
Reaches altitude 10° 17:21:39 10° 152° (SSE) 2,301 5.3 -9.0°
Maximum altitude 17:26:40 65° 71° (ENE) 842 3.0 -9.8°
Drops below altitude 10° 17:31:43 10° 351° (N) 2,316 5.5 -10.6°
Sets 17:34:03 0° 348° (NNW) 3,246 6.3 -10.9°
